Location: Winthrop
(48.4780°N, 120.1850°W)
Time: 16:46:30
(UTC-07:00)

Explorer 7 - Pass Details

Date: 04 February 2023
Orbit: 478 x 657 km, 50.3° (Epoch: 30 March)

Event Time Altitude Azimuth Distance (km) Brightness Sun altitude
Rises 14:35:18 0° 278° (W) 2,757 10.8 18.3°
Reaches altitude 10° 14:37:30 10° 281° (W) 1,891 10.0 18.0°
Maximum altitude 14:41:50 70° 5° (N) 643 7.2 17.6°
Drops below altitude 10° 14:46:26 10° 90° (E) 2,002 9.4 17.2°
Sets 14:48:50 0° 93° (E) 2,933 10.2 16.9°
